| Date | Time | Temp. (oF) | Dew Point (oF) | Rel. Hum. (%) | Press. (in.) | Wind Dir. | Wind Speed (mph) | Hourly Rainfall (in.) |
|
|---|---|---|---|---|---|---|---|---|---|
| 1 | 07/21 | 00:00 | 63 | 63 | 100 | 30.06 | ESE | 4 | 0.00 |
| 2 | 07/20 | 23:00 | 62 | 62 | 100 | 30.06 | E | 10 | 0.00 |
| 3 | 07/20 | 22:00 | 63 | 63 | 100 | 30.06 | E | 6 | 0.00 |
| 4 | 07/20 | 21:00 | 63 | 63 | 100 | 30.04 | E | 4 | 0.00 |
| 5 | 07/20 | 20:00 | 64 | 63 | 100 | 30.03 | ENE | 7 | 0.00 |
| 6 | 07/20 | 19:00 | 65 | 64 | 100 | 30.01 | E | 7 | 0.00 |
| 7 | 07/20 | 18:00 | 65 | 64 | 100 | 30.00 | E | 12 | 0.00 |
| 8 | 07/20 | 17:00 | 66 | 66 | 100 | 29.99 | E | 10 | 0.00 |
| 9 | 07/20 | 16:00 | 67 | 67 | 100 | 29.99 | NE | 6 | 0.01 |
| 10 | 07/20 | 15:00 | 67 | 67 | 100 | 29.99 | ENE | 5 | 0.00 |
| 11 | 07/20 | 14:00 | 68 | 68 | 100 | 29.99 | ENE | 6 | 0.01 |
| 12 | 07/20 | 13:00 | 69 | 68 | 100 | 29.99 | ENE | 3 | 0.00 |
| 13 | 07/20 | 12:00 | 69 | 68 | 100 | 29.98 | NE | 3 | 0.00 |
| 14 | 07/20 | 11:00 | 69 | 68 | 100 | 29.97 | ENE | 4 | 0.00 |
| 15 | 07/20 | 10:00 | 70 | 69 | 100 | 29.95 | ENE | 5 | 0.00 |
| 16 | 07/20 | 09:00 | 68 | 68 | 100 | 29.95 | E | 5 | 0.00 |
| 17 | 07/20 | 08:00 | 68 | 68 | 100 | 29.93 | ENE | 5 | 0.00 |
| 18 | 07/20 | 07:00 | 68 | 68 | 100 | 29.93 | E | 3 | 0.00 |
| 19 | 07/20 | 06:00 | 69 | 68 | 100 | 29.92 | NE | 2 | 0.00 |
| 20 | 07/20 | 05:00 | 69 | 68 | 100 | 29.90 | NNE | 4 | 0.00 |
| 21 | 07/20 | 04:00 | 70 | 69 | 100 | 29.90 | ENE | 4 | 0.00 |
| 22 | 07/20 | 03:00 | 69 | 68 | 100 | 29.91 | NNE | 1 | 0.01 |
| 23 | 07/20 | 02:00 | 69 | 68 | 100 | 29.90 | E | 4 | 0.01 |
| 24 | 07/20 | 01:00 | 70 | 69 | 100 | 29.93 | ESE | 0 | 0.07 |